Погода в Щурове

Россия / Ярославская область     57°10′11″N   38°48′55″E
темп.,
°C
ветер,
м/с
пор.,
м/с
влажн.,
%
обл.,
%
осадки,
мм/ч
давл.,
гПа
погр.,
м
13 апреля, вт
вт1300:00+7юв41384100 0.0 1029398
03:00+6юв3109681 0.0 1028273
06:00+6юв31295100 0.0 1027257
09:00+13ююв4136899 0.0 1025430
12:00+18ю51046100 0.0 1024872
15:00+19ю4944100 0.0 10231375
18:00+17ю41048100 0.0 1023456
21:00+11ююв3116977 0.0 1023206
14 апреля, ср
ср1400:00+10ююв3137026 0.0 1022253
03:00+10ю4146733 0.0 1022346
06:00+8ю312735 0.0 1021243
09:00+13ю4856100 0.0 1021346
12:00+18ю474891 0.0 1020948
15:00+19ю4736100 0.0 10191650
18:00+16ю2350100 0.0 101850
21:00+12ю2262100 0.0 101927
15 апреля, чт
чт1500:00+9ю246848 0.0 101860
03:00+8юз117196 0.0 101810
06:00+7св1174100 0.0 101810
09:00+11св2262100 0.0 1019209
12:00+14св2352100 0.0 1019629
15:00+14св4559100 0.0 1019956
18:00+9св5980100 0.0 1020519
21:00+6св51287100 0.0 1022471
16 апреля, пт
пт1600:00+5св51288100 0.0 1022502
03:00+5св51385100 0.0 1023525
06:00+4всв5128793 0.0 1024527
09:00+6всв6107476 0.0 1024602
12:00+10всв686188 0.0 1024866
15:00+12всв685636 0.0 10241111
18:00+10всв595975 0.0 10251024
21:00+7всв5125785 0.0 1026570
17 апреля, сб
сб1700:00+6всв51361100 0.0 1027501
03:00+4всв4136893 0.0 1027418
06:00+3всв5137093 0.0 1029428
09:00+7всв6115510 0.0 1029608
12:00+11всв58395 0.0 10291053
15:00+12всв57355 0.0 10291372
18:00+11всв47450 0.0 1029968
21:00+6св310661 0.0 1030234